This demonstration page uses our WeatherBlox Daily Observations layout. Learn more.

Left ArrowRight Arrow

41.86663, -103.66717

Hourly Observations for January 15, 2016

Temp ( °F °C ) Dew Point ( °F °C ) Humidity (%) Winds ( mph kmh ) Pressure ( in mb ) Visibility ( mi km ) Precip ( " mm )
12:53 am 00:53 Cloudy 34 1.1 27 -2.8 76 76 WNW 9 15 29.73 1007 10 16 N/A
1:53 am 01:53 Cloudy 34 1.1 26 -3.3 73 73 WNW 12 19 29.74 1007 10 16 N/A
2:53 am 02:53 Cloudy 33 0.6 26 -3.3 75 75 W 12 19 29.76 1008 10 16 N/A
3:53 am 03:53 Cloudy with Light Snow 31 -0.6 26 -3.3 82 82 W 16 26 29.77 1008 6 10 N/A
4:07 am 04:07 Windy with Snow Likely 30 -1.1 26 -3.3 85 85 W 20 31 29.85 1011 2 3 N/A
4:10 am 04:10 Cloudy with Light Snow 30 -1 27 -3 86 86 WNW 17 28 29.85 1011 1 2 N/A
4:50 am 04:50 Cloudy with Light Snow 28 -2 25 -4 86 86 WNW 16 26 29.85 1011 3 5 N/A
4:53 am 04:53 Cloudy with Light Snow 29 -1.7 25 -3.9 85 85 WNW 17 28 29.79 1009 4 6 0.01 0.25
5:01 am 05:01 Cloudy 29 -1.7 25 -3.9 85 85 WNW 16 26 29.85 1011 9 14 N/A
5:53 am 05:53 Mostly Cloudy 28 -2.2 24 -4.4 85 85 WNW 14 22 29.79 1009 10 16 N/A
6:53 am 06:53 Mostly Clear 27 -2.8 23 -5 85 85 WNW 6 9 29.80 1009 10 16 N/A
7:53 am 07:53 Cloudy 27 -2.8 22 -5.6 81 81 NW 7 11 29.81 1010 10 16 N/A
8:53 am 08:53 Cloudy 29 -1.7 24 -4.4 82 82 W 9 15 29.83 1010 10 16 N/A
9:53 am 09:53 Cloudy 32 undefined 26 -3.3 79 79 WNW 10 17 29.84 1010 10 16 N/A
10:53 am 10:53 Sunny 32 undefined 23 -5 69 69 WNW 12 19 29.83 1010 10 16 N/A
11:53 am 11:53 Sunny 33 0.6 21 -6.1 61 61 W 12 19 29.83 1010 10 16 N/A
12:53 pm 12:53 Mostly Sunny 34 1.1 24 -4.4 67 67 NW 16 26 29.81 1009 10 16 N/A
1:53 pm 13:53 Sunny 34 1.1 23 -5 64 64 NW 14 22 29.80 1009 10 16 N/A
2:53 pm 14:53 Sunny 35 1.7 21 -6.1 57 57 WNW 12 19 29.82 1010 10 16 N/A
3:53 pm 15:53 Partly Cloudy 33 0.6 23 -5 66 66 NW 6 9 29.86 1011 10 16 N/A
4:53 pm 16:53 Clear 29 -1.7 21 -6.1 72 72 NW 6 9 29.89 1012 10 16 N/A
5:53 pm 17:53 Clear 27 -2.8 19 -7.2 72 72 WNW 6 9 29.91 1013 10 16 N/A
6:53 pm 18:53 Clear 25 -3.9 18 -7.8 75 75 NNW 5 7 29.95 1014 10 16 N/A
7:53 pm 19:53 Mostly Cloudy 21 -6.1 17 -8.3 85 85 NNW 5 7 29.96 1015 10 16 N/A
8:53 pm 20:53 Cloudy 22 -5.6 18 -7.8 85 85 N 3 6 29.98 1015 10 16 N/A
9:53 pm 21:53 Cloudy 23 -5 17 -8.3 78 78 WNW 5 7 29.97 1015 10 16 N/A
10:53 pm 22:53 Mostly Cloudy 21 -6.1 16 -8.9 81 81 NNW 5 7 29.99 1016 10 16 N/A
11:53 pm 23:53 Cloudy 21 -6.1 17 -8.3 85 85 NNW 3 6 30.00 1016 10 16 N/A

Powered by AerisWeather